Aérodrome :
LOGIN :

S'inscrire | Disclaimer

   EN    FR    IT 

 










Légende :    VFR   VFR Marginal   IFR   IFR Intensif   IFR Très Intensif
Visi : 
Plafond : 
>= 8 km
>= 3000ft
5 à 8 km
1000 à 3000 ft
1500m à 5 km
500 à 1000 ft
800 à 1500m
200 à 500 ft
< 800m
< 200 ft
Symboles :   Orages  Brouillard  Fortes neiges  Fortes précipitations  Vent > 20 kt
SIGMETs :   Divers  Orages  Givrage  Turbulence  Onde Orograph.  Cendres Volcan.






- Altitude de l'aérodrome : 1674 ft
- Code IATA : BRN


LSZB - Bern Belp

DERNIER METAR :
  • 251550Z 33005KT CAVOK 04/01 Q1020 NOSIG

METARs EXPIRÉS :
  • 251520Z 34003KT CAVOK 05/02 Q1020 NOSIG
  • 251450Z 34005KT CAVOK 06/02 Q1020 NOSIG
  • 251420Z 30006KT CAVOK 07/02 Q1020 NOSIG
  • 251350Z 32005KT 290V350 CAVOK 08/02 Q1020 NOSIG
  • 251320Z VRB02KT CAVOK 07/01 Q1020 NOSIG

TAF TAF LSZB
Valide du 25 à 15h jusqu'au 26 à 00h UTC


251425Z 2515/2524 VRB03KT CAVOK
BECMG 2518/2521 4000 BR
BECMG 2521/2524 1500 BCFG
ATIS : +41 22 417 40 76



MET'MAP, la Météo Aéronautique d'un coup d'oeil ! - Copyright ORBIFLY Décembre 2007 - Disclaimer

ORBIFLY MET'MAP TEAM :

Programmation & Développement : Alexandra Zaïnal
Sur une idée originale de : Baudouin d'Aumeries
Assistance à la programmation : Marc-Olivier Méhu
Soutien technique & logistique : Manuel Goepfert

Contact : metmap@orbifly.com




SOURCES & CREDITS :

   NOAA